Location: Stuttgart
(48.8069°N, 9.1544°E)
Time: 15:27:15
(UTC+01:00)

ISS - Pass Details

Date: 11 January 2018
Orbit: 402 x 407 km, 51.6° (Epoch: 21 January)

Event Time Altitude Azimuth Distance (km) Brightness Sun altitude
Exits shadow 05:41:03 35° 87° (E) 671 -2.2 -24.4°
Drops below altitude 10° 05:43:09 10° 99° (E) 1,466 0.1 -24.0°
Sets 05:45:14 0° 102° (ESE) 2,326 1.5 -23.7°
